Coffeyville, KS

8:32 AM CDT on March 27, 2017 (GMT -0500)
Coffeyville Municipal

Weather History for KCFV - November, 2012

Change the Weather History Date:

Sunday, November 4, 2012

  Actual Average Record
Temperature  
Mean Temperature 52 °F -  
Max Temperature 66 °F 59 °F 80 °F (2005)
Min Temperature 37 °F 40 °F 30 °F (1997)
Degree Days  
Heating Degree Days 14    
Growing Degree Days 2 (Base 50)    
Moisture  
Dew Point 37 °F    
Average Humidity 62    
Maximum Humidity 86    
Minimum Humidity 34    
Precipitation  
Precipitation 0.00 in - - ()
Sea Level Pressure  
Sea Level Pressure 30.15 in    
Wind  
Wind Speed 3 mph (SSE)    
Max Wind Speed 9 mph    
Max Gust Speed -    
Visibility 10 miles    
Events      
Averages and records for this station are not official NWS values.
T = Trace of Precipitation, MM = Missing Value Source: NWS Daily Summary

Daily Weather History Graph

Daily Weather History Graph

Search for Another Location

Airport or City:

Trip Planner

Search our weather history database for the weather conditions in past years. The results will help you decide how hot, cold, wet, or windy it might be!

Date:

Astronomy

Nov. 04, 2012 Rise Set
Actual Time 6:50 AM CST 5:21 PM CST
Civil Twilight 6:22 AM CST 5:48 PM CST
Nautical Twilight 5:52 AM CST 6:19 PM CST
Astronomical Twilight 5:21 AM CST 6:49 PM CST
Moon 10:01 PM CST (11/4) 11:32 AM CST (11/4)
Length of Visible Light 11h 25m
Length of Day
10h 31m
Waning Gibbous, 72% of the Moon is Illuminated
Nov 4
Waning Gibbous
Nov 6
Last Quarter
Nov 13
New
Nov 20
First Quarter
Nov 28
Full

Hourly Weather History & Observations

Time (CST) Temp. Windchill Dew Point Humidity Pressure Visibility Wind Dir Wind Speed Gust Speed Precip Events Conditions
12:52 AM 39.9 °F 36.7 °F 35.1 °F 83% 30.21 in 10.0 mi North 4.6 mph - N/A   Clear
1:52 AM 39.0 °F 36.8 °F 35.1 °F 86% 30.21 in 10.0 mi North 3.5 mph - N/A   Clear
1:52 AM 39.0 °F - 34.0 °F 82% 30.21 in 10.0 mi Calm Calm - N/A   Clear
2:52 AM 39.0 °F - 34.0 °F 82% 30.20 in 10.0 mi Calm Calm - N/A   Clear
3:52 AM 37.9 °F - 34.0 °F 86% 30.20 in 10.0 mi Calm Calm - N/A   Clear
4:52 AM 37.9 °F - 34.0 °F 86% 30.22 in 10.0 mi Calm Calm - N/A   Clear
5:52 AM 37.9 °F - 34.0 °F 86% 30.23 in 10.0 mi Calm Calm - N/A   Clear
7:52 AM 41.0 °F - 36.0 °F 82% 30.24 in 10.0 mi Calm Calm - N/A   Clear
8:52 AM 46.9 °F - 37.9 °F 71% 30.23 in 10.0 mi Calm Calm - N/A   Clear
9:52 AM 54.0 °F - 39.0 °F 57% 30.24 in 10.0 mi Calm Calm - N/A   Clear
10:52 AM 57.9 °F - 37.9 °F 47% 30.22 in 10.0 mi Variable 3.5 mph - N/A   Clear
11:52 AM 61.0 °F - 39.0 °F 44% 30.19 in 10.0 mi Calm Calm - N/A   Clear
12:52 PM 63.0 °F - 37.9 °F 40% 30.15 in 9.0 mi SSE 4.6 mph - N/A   Clear
1:52 PM 64.9 °F - 37.9 °F 37% 30.12 in 10.0 mi South 3.5 mph - N/A   Clear
2:52 PM 66.9 °F - 37.9 °F 34% 30.10 in 10.0 mi South 6.9 mph - N/A   Clear
3:52 PM 66.0 °F - 37.0 °F 34% 30.08 in 10.0 mi South 9.2 mph - N/A   Clear
4:52 PM 63.0 °F - 39.0 °F 41% 30.06 in 10.0 mi South 5.8 mph - N/A   Clear
5:52 PM 60.1 °F - 37.0 °F 42% 30.08 in 10.0 mi SSE 3.5 mph - N/A   Clear
6:52 PM 54.0 °F - 37.9 °F 55% 30.08 in 10.0 mi SE 4.6 mph - N/A   Clear
7:52 PM 51.1 °F - 37.0 °F 59% 30.08 in 10.0 mi ESE 3.5 mph - N/A   Clear
8:52 PM 50.0 °F - 39.0 °F 66% 30.07 in 10.0 mi SSE 4.6 mph - N/A   Clear
9:52 PM 50.0 °F - 39.9 °F 68% 30.07 in 10.0 mi Calm Calm - N/A   Clear
10:52 PM 50.0 °F - 39.9 °F 68% 30.07 in 10.0 mi Calm Calm - N/A   Clear